[[[{"header":{"parameterUnit":"kt","parameterCategory":2,"dx":1,"dy":1,"la1":30.253999710083008,"la2":30.299108505249023,"lo1":-89.0895004272461,"lo2":-89.04439544677734,"nx":28,"ny":28,"refTime":"2022-10-09T21:00:00:Z","depth":0,"parameterNumber":1,"parameterNumberName":"U-component_of_WINDS"},"data":[-6.9609,-6.9749,-6.9741,-6.9899,-6.9918,-7.0025,-7.0061,-7.0107,-7.0142,-7.0273,-7.0347,-7.0354,-7.0387,-7.0477,-7.0559,-7.056,-7.0597,-7.0656,-7.0648,-7.0389,-7.0352,-7.0318,-7.0282,-7.0664,-7.0664,-7.0917,-7.092,-7.0922,-6.9432,-6.9451,-6.953,-6.96,-6.9669,-6.9608,-6.966,-6.9723,-6.9821,-6.9865,-6.9935,-7.005,-7.014,-7.0152,-7.0238,-7.0308,-7.0284,-7.0332,-7.0327,-7.0334,-7.0056,-7.0019,-7.0351,-7.0351,-7.0351,-7.035,-7.035,-7.035,-6.9105,-6.9189,-6.9223,-6.9309,-6.9341,-6.9389,-6.9468,-6.9471,-6.955,-6.9633,-6.9606,-6.9718,-6.976,-6.9856,-6.9886,-6.9976,-6.9921,-6.997,-6.9983,-6.9996,-7.0014,-6.9655,-6.999,-6.9989,-6.9988,-6.9987,-6.9986,0,-6.8862,-6.8848,-6.8919,-6.8991,-6.9052,-6.9106,-6.9154,-6.9203,-6.9166,-6.9233,-6.9329,-6.9383,-6.9491,-6.9582,-6.9658,-6.9678,-6.9621,-6.9613,-6.9647,-6.9662,-6.9669,-6.967,-6.922,-6.9602,-6.9599,-6.9596,-6.9594,-6.9593,-6.8533,-6.863,-6.8658,-6.8711,-6.8732,-6.8819,-6.8868,-6.8827,-6.8882,-6.8936,-6.9013,-6.9102,-6.917,-6.9328,-6.933,-6.9411,-6.9383,-6.9531,-6.9395,-6.9408,-6.9388,-6.9383,-6.9395,-6.9558,-6.9562,-6.9566,-6.9569,0,-6.835,-6.8327,-6.8472,-6.8489,-6.8496,-6.8601,-6.8617,-6.8699,-6.869,-6.8803,-6.8827,-6.8814,-6.891,-6.8886,-6.899,-6.8976,-6.9159,-6.9129,-6.9146,-6.9139,-6.927,-6.9259,-6.9695,-6.9752,-6.9354,-6.9358,-6.9361,0,-6.806,-6.8188,-6.8146,-6.8231,-6.8375,-6.8326,-6.847,-6.8475,-6.8504,-6.8592,-6.852,-6.8605,-6.856,-6.8643,-6.8621,-6.8766,-6.8784,-6.8782,-6.8775,-6.8789,-6.8789,-6.8817,-6.8799,-6.8751,-6.8749,-6.8747,-6.8745,0,-6.7775,-6.79,-6.8038,-6.8062,-6.809,-6.8157,-6.8172,-6.8202,-6.825,-6.8308,-6.834,-6.8412,-6.8452,-6.8512,-6.8482,-6.8391,-6.8656,-6.8525,-6.8654,-6.8656,-6.8712,-6.8709,-6.9103,-6.8742,-6.8741,-6.8741,-6.874,0,-6.7535,-6.759,-6.7792,-6.7814,-6.7848,-6.7939,-6.8004,-6.8075,-6.8112,-6.8102,-6.8148,-6.8094,-6.8214,-6.8087,-6.8253,-6.8143,-6.8189,-6.8196,-6.8205,-6.8213,-6.807,-6.8297,-6.8673,-6.8712,-6.8225,-6.8221,-6.8217,0,-6.7218,-6.7412,-6.7368,-6.7562,-6.7647,-6.7557,-6.7658,-6.769,-6.7684,-6.7759,-6.7753,-6.7838,-6.7736,-6.7759,-6.7845,-6.7843,-6.7987,-6.7823,-6.7938,-6.7943,-6.7932,-6.8277,-6.8339,-6.8593,-6.8162,-6.8167,-6.8172,0,-6.6966,-6.6991,-6.7028,-6.7053,-6.7083,-6.7153,-6.7268,-6.7339,-6.7391,-6.7433,-6.753,-6.7648,-6.7577,-6.7614,-6.7576,-6.7667,-6.7888,-6.7578,-6.7578,-6.7637,-6.813,-6.8189,-6.8232,-6.7844,-6.7851,-6.7856,-6.8128,0,-6.6614,-6.6704,-6.6802,-6.6855,-6.6903,-6.702,-6.6985,-6.7042,-6.6999,-6.6988,-6.7129,-6.7145,-6.7217,-6.7256,-6.7215,-6.7428,-6.7388,-6.731,-6.7181,-6.7408,-6.7497,-6.7533,-6.7053,-6.7049,-6.7046,-6.7043,0,0,-6.6317,-6.6443,-6.6386,-6.6492,-6.6529,-6.6428,-6.6556,-6.6581,-6.6634,-6.6664,-6.6592,-6.6758,-6.6774,-6.6948,-6.7016,-6.7044,-6.7081,-6.7,-6.73,-6.7329,-6.7356,-6.7451,-6.7489,-6.7037,-6.7036,-6.7034,-6.7033,0,-6.6178,-6.619,-6.6314,-6.6337,-6.6366,-6.6345,-6.6376,-6.6387,-6.6385,-6.6518,-6.6434,-6.6514,-6.6644,-6.6673,-6.6705,-6.6979,-6.6911,-6.7004,-6.7164,-6.7267,-6.7301,-6.733,-6.7431,-6.7468,-6.7025,-6.7026,-6.7026,0,-6.5925,-6.5931,-6.5985,-6.606,-6.6078,-6.6166,-6.6023,-6.6121,-6.6187,-6.6069,-6.6203,-6.6207,-6.624,-6.6407,-6.6481,-6.6417,-6.676,-6.6643,-6.6663,-6.667,-6.6769,-6.6809,-6.6844,-6.6375,-6.6373,-6.6371,0,0,-6.5811,-6.5891,-6.5881,-6.6027,-6.6044,-6.6012,-6.6054,-6.6013,-6.6042,-6.6054,-6.6055,-6.6089,-6.6165,-6.6216,-6.6285,-6.6473,-6.6477,-6.6564,-6.6595,-6.662,-6.6641,-6.6746,-6.6786,-6.6363,-6.6363,-6.6362,0,0,-6.5756,-6.5748,-6.5697,-6.586,-6.5891,-6.5891,-6.5983,-6.5921,-6.5977,-6.5959,-6.5896,-6.5902,-6.6057,-6.6063,-6.596,-6.6239,-6.6113,-6.6136,-6.6228,-6.6266,-6.6297,-6.6292,-6.5814,0,0,0,0,0,-6.5592,-6.5749,-6.5703,-6.5724,-6.5815,-6.5916,-6.5928,-6.5877,-6.579,-6.5865,-6.5857,-6.5778,-6.5995,-6.5902,-6.5926,-6.6041,-6.6259,-6.6278,-6.6295,-6.6457,-6.6498,-6.6532,0,0,0,0,0,0,-6.56,-6.5626,-6.5699,-6.5706,-6.5726,-6.591,-6.5751,-6.5742,-6.578,-6.5764,-6.5782,-6.5778,-6.5739,-6.5887,-6.5909,-6.6019,-6.5806,-6.6266,-6.6282,-6.6296,-6.6471,-6.6504,-6.6533,0,0,0,0,0,-6.5606,-6.5627,-6.5785,-6.5703,-6.5721,-6.5691,-6.5744,-6.5735,-6.5765,-6.5749,-6.5743,-6.5723,-6.5743,-6.5758,-6.59,-6.601,-6.5791,-6.5799,-6.6276,-6.6289,-6.63,-6.6487,0,0,0,0,0,0,-6.561,-6.562,-6.5788,-6.5791,-6.5638,-6.568,-6.5684,-6.573,-6.5747,-6.5742,-6.5686,-6.5673,-6.5748,-6.5759,-6.5771,-6.601,-6.5778,-6.5786,-6.5792,-6.6286,-6.6295,-6.6304,0,0,0,0,0,0,-6.5609,-6.5624,-6.579,-6.571,-6.5704,-6.567,-6.5674,-6.5785,-6.5749,-6.5682,-6.5671,-6.568,-6.5731,-6.5761,-6.577,-6.5946,-6.5768,-6.5776,-6.5782,-6.5786,-6.6294,-6.6301,0,0,0,0,0,0,-6.5614,-6.5628,-6.5708,-6.5704,-6.5698,-6.5735,-6.5767,-6.5864,-6.5678,-6.5683,-6.566,-6.5652,-6.5735,-6.5742,-6.5769,-6.5942,-6.5945,-6.5768,-6.5774,-6.5778,-6.578,0,0,0,0,0,0,0,-6.5619,-6.5542,-6.5767,-6.5699,-6.5694,-6.5824,-6.5825,-6.5826,-6.5676,-6.5669,-6.5662,-6.5655,-6.5721,-6.573,-6.5739,-6.5939,0,0,-6.5767,-6.5771,0,0,0,0,0,0,0,0,-6.5535,-6.554,-6.5767,-6.5767,-6.5768,-6.5825,-6.5825,-6.5826,-6.5675,-6.5669,-6.5663,-6.5658,-6.5723,-6.5731,-6.5738,0,0,0,0,0,0,0,0,0,0,0,0,0,0,0,-6.5767,-6.5767,0,-6.5825,-6.5825,-6.5826,-6.5674,-6.5669,-6.5665,-6.566,-6.5725,-6.5731,-6.5738,0,0,0,0,0,0,0,0,0,0,0,0,0,0,0,0,0,0,0,0,0,0,0,0,0,0,0,0,0,0,0,0,0,0,0,0,0,0,0,0,0,0,0,0,0,0,0,0,0,0,0,0,0,0,0,0,0,0,0,0,0,0,0,0,0,0,0,0,0]}],[{"header":{"parameterUnit":"kt","parameterCategory":2,"dx":1,"dy":1,"la1":30.253999710083008,"la2":30.299108505249023,"lo1":-89.0895004272461,"lo2":-89.04439544677734,"nx":28,"ny":28,"refTime":"2022-10-09T21:00:00:Z","depth":0,"parameterNumber":2,"parameterNumberName":"V-component_of_WINDS"},"data":[1.3895,1.3792,1.3826,1.3723,1.3737,1.3671,1.3658,1.3645,1.3643,1.3566,1.3528,1.355,1.3559,1.352,1.3478,1.3488,1.3466,1.3405,1.3427,1.3675,1.3711,1.3746,1.3773,1.3401,1.34,1.3163,1.3161,1.3159,1.4074,1.4087,1.4043,1.4024,1.3986,1.4067,1.4057,1.4019,1.3957,1.3954,1.3918,1.3853,1.3805,1.3835,1.3793,1.3743,1.3776,1.3728,1.3731,1.373,1.3998,1.4027,1.3702,1.3702,1.3702,1.3702,1.3702,1.3702,1.4408,1.4344,1.4354,1.4307,1.4307,1.4293,1.4237,1.4268,1.4224,1.4187,1.4237,1.4166,1.4167,1.4134,1.413,1.4074,1.4133,1.409,1.4078,1.4065,1.4046,1.4379,1.4069,1.407,1.4071,1.4072,1.4073,0,1.4662,1.4696,1.4657,1.4628,1.4595,1.4575,1.4562,1.4529,1.4611,1.457,1.4514,1.4487,1.4433,1.4381,1.435,1.4356,1.443,1.4443,1.4413,1.4386,1.4366,1.4372,1.4804,1.445,1.4454,1.4456,1.4458,1.4459,1.4999,1.4922,1.4949,1.4916,1.4919,1.4865,1.4839,1.4918,1.4887,1.4881,1.4819,1.4771,1.4736,1.4637,1.467,1.4628,1.4663,1.4524,1.4657,1.4636,1.4657,1.4659,1.4651,1.4495,1.4491,1.4487,1.4484,0,1.5184,1.5243,1.5135,1.517,1.5176,1.509,1.5118,1.5057,1.5094,1.5014,1.5,1.5055,1.4997,1.5054,1.4998,1.5028,1.4881,1.4919,1.4882,1.4891,1.4769,1.4779,1.4373,1.4323,1.4713,1.471,1.4707,0,1.5492,1.5388,1.5482,1.5415,1.5302,1.5384,1.5268,1.5288,1.5293,1.5231,1.5329,1.5268,1.5351,1.5297,1.5342,1.5233,1.5224,1.5239,1.5251,1.5228,1.5225,1.5207,1.5224,1.5287,1.5289,1.5291,1.5292,0,1.5774,1.5703,1.5597,1.5589,1.5615,1.5562,1.557,1.5577,1.555,1.5525,1.5508,1.5472,1.545,1.542,1.5478,1.5565,1.5347,1.5479,1.5362,1.536,1.5307,1.5308,1.4939,1.5295,1.5296,1.5296,1.5297,0,1.6031,1.6008,1.5846,1.587,1.5847,1.5777,1.5749,1.5702,1.5701,1.5726,1.5707,1.5777,1.569,1.5816,1.5695,1.5792,1.5765,1.5773,1.5766,1.5757,1.5897,1.5676,1.5322,1.5285,1.5755,1.5758,1.5762,0,1.6335,1.6188,1.626,1.6103,1.6043,1.6159,1.6082,1.6079,1.6106,1.6058,1.6088,1.603,1.6137,1.6127,1.606,1.6086,1.596,1.6106,1.6026,1.6023,1.6021,1.5697,1.5628,1.5395,1.5812,1.5806,1.5803,0,1.6578,1.6614,1.658,1.6576,1.6588,1.6538,1.645,1.6413,1.6376,1.6363,1.6288,1.6211,1.6287,1.6269,1.6322,1.6249,1.6048,1.634,1.6341,1.6283,1.5843,1.5778,1.5738,1.6099,1.6093,1.6089,1.5842,0,1.6947,1.6883,1.6798,1.6785,1.6756,1.6662,1.6727,1.6688,1.6744,1.6776,1.6668,1.6679,1.6638,1.661,1.6663,1.6479,1.6517,1.6599,1.6723,1.6512,1.6432,1.6399,1.6838,1.6842,1.6845,1.6848,0,0,1.7221,1.7131,1.7212,1.7131,1.7111,1.7233,1.7126,1.7121,1.7106,1.7088,1.716,1.705,1.7054,1.6916,1.6856,1.6839,1.6811,1.6882,1.6613,1.6586,1.6562,1.6475,1.6441,1.6854,1.6855,1.6857,1.6858,0,1.737,1.738,1.7276,1.7275,1.7277,1.7317,1.7292,1.7314,1.7329,1.7226,1.7324,1.7267,1.7176,1.7168,1.7151,1.6902,1.6976,1.6885,1.6729,1.6645,1.6614,1.6587,1.6495,1.6462,1.6866,1.6865,1.6865,0,1.7618,1.7637,1.7595,1.756,1.7561,1.7496,1.7645,1.757,1.7522,1.7654,1.7549,1.7563,1.7557,1.742,1.7361,1.7423,1.7123,1.7229,1.721,1.7203,1.7124,1.7087,1.7054,1.749,1.7492,1.7494,0,0,1.7737,1.7679,1.7722,1.7596,1.7591,1.7649,1.7621,1.7674,1.7669,1.7666,1.7686,1.7675,1.7624,1.7587,1.7542,1.7383,1.7386,1.7304,1.7274,1.725,1.723,1.7145,1.7108,1.7501,1.7501,1.7502,0,0,1.7792,1.784,1.7899,1.7761,1.7755,1.7787,1.7706,1.7778,1.7744,1.7762,1.7845,1.7845,1.7718,1.7727,1.7818,1.7586,1.7709,1.7689,1.7585,1.7549,1.752,1.7519,1.7967,0,0,0,0,0,1.7977,1.7835,1.7888,1.7875,1.7829,1.7759,1.7753,1.7821,1.7907,1.7841,1.7868,1.7951,1.7793,1.7876,1.7859,1.7756,1.7595,1.7579,1.7563,1.7392,1.7354,1.7321,0,0,0,0,0,0,1.7973,1.7957,1.7892,1.7917,1.7908,1.7765,1.7925,1.7939,1.7915,1.7933,1.7944,1.7952,1.8005,1.7889,1.7873,1.7773,1.7973,1.7589,1.7575,1.7562,1.7379,1.7348,1.732,0,0,0,0,0,1.797,1.7957,1.7866,1.792,1.7911,1.7968,1.7931,1.7944,1.7926,1.7968,1.7979,1.798,1.8001,1.7992,1.7879,1.7779,1.7984,1.7978,1.7579,1.7568,1.7558,1.7364,0,0,0,0,0,0,1.7967,1.7967,1.7866,1.7866,1.7979,1.7977,1.7979,1.7948,1.7965,1.7974,1.8009,1.8023,1.7996,1.799,1.7982,1.7777,1.7994,1.7987,1.7983,1.7571,1.7562,1.7554,0,0,0,0,0,0,1.7975,1.7966,1.7866,1.7937,1.7946,1.7985,1.7987,1.7901,1.7963,1.8005,1.8017,1.8015,1.8006,1.7987,1.7982,1.7845,1.8001,1.7995,1.7991,1.7988,1.7564,1.7557,0,0,0,0,0,0,1.7972,1.7965,1.7938,1.7944,1.7953,1.7956,1.791,1.7858,1.8028,1.8002,1.8045,1.8053,1.8,1.7997,1.7981,1.7846,1.7845,1.8001,1.7997,1.7994,1.7992,0,0,0,0,0,0,0,1.797,1.8004,1.7867,1.795,1.7958,1.7865,1.7865,1.7864,1.803,1.8037,1.8043,1.805,1.8035,1.8029,1.8022,1.7846,0,0,1.8001,1.7998,0,0,0,0,0,0,0,0,1.8009,1.8005,1.7867,1.7867,1.7867,1.7865,1.7865,1.7864,1.8031,1.8036,1.8042,1.8047,1.8033,1.8028,1.8023,0,0,0,0,0,0,0,0,0,0,0,0,0,0,0,1.7867,1.7867,0,1.7865,1.7865,1.7864,1.8032,1.8036,1.8041,1.8045,1.8032,1.8028,1.8023,0,0,0,0,0,0,0,0,0,0,0,0,0,0,0,0,0,0,0,0,0,0,0,0,0,0,0,0,0,0,0,0,0,0,0,0,0,0,0,0,0,0,0,0,0,0,0,0,0,0,0,0,0,0,0,0,0,0,0,0,0,0,0,0,0,0,0,0,0]}]]]